Location: Unspecified
(41.1850°N, 73.2650°W)
Time: 17:41:55
(UTC+00:00)

ISS - Visible Passes

Search period start: 14 February 2026 00:00
Search period end: 24 February 2026 00:00
Orbit: 413 x 428 km, 51.6° (Epoch: 13 February)

Date Brightness Start Highest point End Pass type
(mag) Time Alt. Az. Time Alt. Az. Time Alt. Az.
14 Feb -2.5 10:00:05 33° SSE 10:00:48 37° SE 10:03:55 10° ENE visible
15 Feb -0.8 09:15:24 16° E 09:15:24 16° E 09:16:31 10° E visible
15 Feb -3.3 10:48:26 19° W 10:50:30 44° NNW 10:53:43 10° NE visible
16 Feb -3.7 10:03:34 68° N 10:03:34 68° N 10:06:43 10° NE visible
17 Feb -1.0 09:18:34 19° ENE 09:18:34 19° ENE 09:19:37 10° ENE visible
17 Feb -2.2 10:51:34 15° WNW 10:53:23 22° NNW 10:56:07 10° NE visible
18 Feb -2.5 10:06:28 29° NNW 10:06:28 29° NNW 10:09:07 10° NE visible
19 Feb -1.0 09:21:16 16° NE 09:21:16 16° NE 09:22:07 10° NE visible
19 Feb -1.6 10:54:16 10° NW 10:56:23 15° N 10:58:29 10° NNE visible
20 Feb -1.8 10:08:59 18° NNW 10:09:00 18° NNW 10:11:24 10° NNE visible
21 Feb -0.9 09:23:39 14° NNE 09:23:39 14° NNE 09:24:22 10° NE visible
21 Feb -1.3 10:57:35 10° NNW 10:59:24 14° N 11:01:13 10° NNE visible
22 Feb -1.5 10:11:16 13° NNW 10:11:58 14° N 10:13:51 10° NNE visible
23 Feb -0.9 09:25:52 13° NNE 09:25:52 13° NNE 09:26:37 10° NNE visible
23 Feb -1.4 11:00:13 10° NNW 11:02:22 16° N 11:04:30 10° NE visible
